Regional Weather Roundup
Issued by NWS Nashville, TN

Home | Current Version | Previous Version | Text Only | Print | Product List | Glossary On
Versions: 1 2 3 4 5 6 7 8 9 10 11 12 13 14 15 16 17 18 19 20 21 22 23 24 25 26 27 28 29 30 31 32 33 34 35 36 37 38 39 40 41 42 43 44 45 46 47 48 49 50
723
ASUS44 KOHX 211310
RWROHX
MIDDLE TENNESSEE HOURLY WEATHER ROUNDUP
NATIONAL WEATHER SERVICE NASHVILLE TN
800 AM CDT THU SEP 21 2017

NOTE: "FAIR" INDICATES FEW OR NO CLOUDS BELOW 12,000 FEET WITH
NO SIGNIFICANT WEATHER AND/OR OBSTRUCTIONS TO VISIBILITY.

* THESE REPORTS ARE NOT UNDER NWS QUALITY CONTROL AND MAY NOT
  REPORT WEATHER SUCH AS PRECIPITATION AND FOG.


TNZ005>011-023>034-057-059-062>066-078-080-211400
...NORTHERN MIDDLE TENNESSEE...

CITY           SKY/WX    TMP DP  RH WIND       PRES   REMARKS
CLARKSVILLE    SUNNY     72  69  90 CALM      30.09R
CROSSVILLE     SUNNY     66  64  93 CALM      30.16S
GALLATIN       CLOUDY    70  68  94 CALM      30.12R FOG
DICKSON        SUNNY     73  70  91 CALM      30.09R
LEBANON        SUNNY     72  67  84 CALM      30.08S
NASHVILLE      MOSUNNY   71  68  90 CALM      30.10R
PORTLAND       SUNNY     73  70  88 S5        30.09R
SMYRNA         SUNNY     72  68  87 CALM      30.10S
SPARTA         SUNNY     68  66  94 CALM      30.11S
SPRINGFIELD    SUNNY     73  72  94 CALM      30.08R
WEST NASHVILLE SUNNY     72  70  94 CALM      30.08R
$$
TNZ056-058-060-061-075>077-079-093>097-211400
...SOUTHERN MIDDLE TENNESSEE...

CITY           SKY/WX    TMP DP  RH WIND       PRES   REMARKS
COLUMBIA       SUNNY     70  70 100 CALM      30.08  FOG
MURFREESBORO   SUNNY     72  68  87 CALM      30.09R
PULASKI        FOG       68  68 100 CALM      30.09R VSB 0
SHELBYVILLE    MOSUNNY   70  70 100 CALM      30.09F
TULLAHOMA      PTSUNNY   68  66  94 NE8       30.14R
WINCHESTER     MOSUNNY   68  68 100 CALM        N/A
$$


...KEY TO REMARKS...
VSB - VISIBILITY IN MILES
WCI - WIND CHILL INDEX
HX  - HEAT INDEX





USA.gov is the U.S. government's official web portal to all federal, state and local government web resources and services.